This demonstration page uses our WeatherBlox Daily Observations layout. Learn more.

Left ArrowRight Arrow

Hourly Observations for April 4, 2020

Temp ( °F °C ) Dew Point ( °F °C ) Humidity (%) Winds ( mph kmh ) Pressure ( in mb ) Visibility ( mi km ) Precip ( " mm )
12:52 am 00:52 Cloudy 28 -2.2 22 -5.6 78 78 N 13 20 30.33 1027 10 16 0.00 0.00
1:52 am 01:52 Cloudy 28 -2.2 23 -5 81 81 NNW 13 20 30.33 1027 10 16 0.00 0.00
2:52 am 02:52 Cloudy 28 -2.2 23 -5 81 81 N 13 20 30.32 1027 10 16 0.00 0.00
3:25 am 03:25 Cloudy 28 -2.2 23 -5 81 81 N 12 19 30.35 1028 10 16 0.00 0.00
3:52 am 03:52 Cloudy 28 -2.2 23 -5 81 81 N 12 19 30.31 1026 10 16 0.00 0.00
4:52 am 04:52 Cloudy 28 -2.2 23 -5 81 81 NE 7 11 30.31 1026 10 16 0.00 0.00
5:52 am 05:52 Cloudy 28 -2.2 22 -5.6 78 78 N 8 13 30.31 1027 10 16 0.00 0.00
6:21 am 06:21 Cloudy 28 -2.2 22 -5.6 78 78 NNE 7 11 30.35 1028 10 16 0.00 0.00
6:52 am 06:52 Cloudy 28 -2.2 22 -5.6 78 78 NE 6 9 30.32 1027 10 16 0.00 0.00
7:27 am 07:27 Cloudy 28 -2.2 22 -5.6 78 78 NE 8 13 30.35 1028 10 16 0.00 0.00
7:52 am 07:52 Cloudy 28 -2.2 22 -5.6 78 78 NNE 8 13 30.33 1027 10 16 0.00 0.00
8:52 am 08:52 Mostly Cloudy 30 -1.1 23 -5 75 75 NNE 9 15 30.31 1027 10 16 0.00 0.00
9:52 am 09:52 Mostly Cloudy 31 -0.6 23 -5 72 72 N 8 13 30.30 1026 10 16 0.00 0.00
10:52 am 10:52 Mostly Cloudy 33 0.6 24 -4.4 70 70 N 9 15 30.30 1026 10 16 0.00 0.00
11:52 am 11:52 Mostly Cloudy 37 2.8 26 -3.3 65 65 VRB 3 6 30.29 1026 10 16 0.00 0.00
12:52 pm 12:52 Partly Cloudy 41 5 25 -3.9 53 53 VRB 5 7 30.26 1025 10 16 0.00 0.00
1:52 pm 13:52 Cloudy 44 6.7 25 -3.9 47 47 E 5 7 30.22 1024 10 16 0.00 0.00
2:52 pm 14:52 Partly Cloudy 47 8.3 25 -3.9 42 42 SSE 10 17 30.19 1022 10 16 0.00 0.00
3:52 pm 15:52 Partly Cloudy 48 8.9 26 -3.3 42 42 SSE 10 17 30.15 1021 10 16 0.00 0.00
4:52 pm 16:52 Mostly Cloudy 50 10 26 -3.3 39 39 ESE 9 15 30.12 1020 10 16 0.00 0.00
5:52 pm 17:52 Partly Cloudy 51 10.6 25 -3.9 36 36 SE 15 24 30.12 1020 10 16 0.00 0.00
6:52 pm 18:52 Mostly Sunny 51 10.6 26 -3.3 38 38 ESE 12 19 30.12 1020 10 16 0.00 0.00
7:52 pm 19:52 Mostly Sunny 47 8.3 27 -2.8 46 46 ESE 8 13 30.12 1020 10 16 0.00 0.00
8:52 pm 20:52 Clear 43 6.1 28 -2.2 56 56 ESE 6 9 30.12 1020 10 16 0.00 0.00
9:52 pm 21:52 Partly Cloudy 42 5.6 28 -2.2 58 58 ESE 7 11 30.14 1021 10 16 0.00 0.00
10:52 pm 22:52 Partly Cloudy 38 3.3 27 -2.8 65 65 SE 7 11 30.14 1021 10 16 0.00 0.00
11:52 pm 23:52 Clear 38 3.3 27 -2.8 65 65 SE 8 13 30.14 1021 10 16 0.00 0.00

Powered by AerisWeather